DateTimeUTC,F1_A11,F1_S11,BsB_S11,BsG_S11,BsR_S11,BbsB_S11,BbsG_S11,BbsR_S11,BaB_A11,BaG_A11,BaR_A11,Tu_S11,T_S11,Uu_S11,U_S11,P_S11,T1_A11
2021-06-06T10:00:00Z,00000200,20000000,,,,,,,-000.10,-000.06,0000.22,18.2,24.6,07.1,04.8,0674.2,31.0
2021-06-06T10:01:00Z,00000200,20000000,,,,,,,-000.22,-000.31,-000.20,18.2,24.6,07.1,04.8,0674.2,31.0
2021-06-06T10:02:00Z,00000200,20000000,,,,,,,0000.17,0000.07,-000.14,18.2,24.6,07.1,04.8,0674.2,31.0
2021-06-06T10:03:00Z,00000200,60000000,,,,,,,0000.39,0000.79,0000.24,18.2,24.6,07.1,04.8,0674.2,31.0
2021-06-06T10:04:00Z,00000200,40000000,0001.77,0000.77,0000.18,0000.25,0000.32,0000.19,0000.50,-000.03,0000.43,18.3,24.5,07.2,05.0,0675.1,31.0
2021-06-06T10:05:00Z,00000200,00000000,0001.10,0000.66,0000.70,-000.23,0000.21,0000.06,0000.41,0000.92,0000.26,18.3,24.4,07.1,04.9,0675.2,31.0
2021-06-06T10:06:00Z,00000200,00000000,0000.61,0000.68,0000.41,0000.06,0000.15,-000.08,0000.55,0000.08,0000.57,18.4,24.4,07.2,05.0,0675.3,31.0
2021-06-06T10:07:00Z,00000200,00000000,0001.01,0000.80,0000.65,0000.48,0000.28,0000.28,0000.64,0000.53,0000.59,18.4,24.4,07.1,04.9,0675.3,31.0
2021-06-06T10:08:00Z,00000200,00000000,0000.49,0000.70,0000.83,0000.39,0000.35,0000.36,0000.40,0000.49,0000.18,18.4,24.4,07.2,05.0,0675.3,31.0
2021-06-06T10:09:00Z,00000200,00000000,0000.98,0000.78,0000.45,-000.27,0000.37,0000.42,0000.49,0000.57,0000.34,18.4,24.4,07.2,05.0,0675.3,31.0
2021-06-06T10:10:00Z,00000200,00010000,0001.04,0000.83,0000.67,0000.11,0000.24,0000.10,-000.07,0000.08,0000.27,18.4,24.4,07.2,04.9,0675.3,31.0
2021-06-06T10:11:00Z,00000200,00000000,0000.69,0000.82,0000.37,0000.10,0000.12,0000.42,0001.25,0000.41,0000.63,18.4,24.4,07.2,04.9,0675.3,31.0
2021-06-06T10:12:00Z,00000200,00000000,0000.87,0000.92,0000.55,0000.31,0000.22,0000.19,0000.14,0000.75,-000.14,18.4,24.4,07.1,04.9,0675.3,31.0
2021-06-06T10:13:00Z,00000200,00000000,0001.42,0000.85,0000.55,0000.45,-000.01,0000.38,0000.29,0000.31,0000.53,18.4,24.4,07.1,04.9,0675.2,31.0
2021-06-06T10:14:00Z,00000200,00000000,0001.05,0000.64,0000.36,-000.40,-000.08,0000.10,0000.79,0000.39,0000.29,18.4,24.4,07.1,04.9,0675.2,31.0
2021-06-06T10:15:00Z,00000200,00000000,0001.30,0000.78,0000.79,-000.52,0000.24,0000.41,0000.42,0000.42,0000.22,18.4,24.4,07.1,04.9,0675.2,31.0
2021-06-06T10:16:00Z,00000200,00000000,0001.23,0000.37,0000.63,-000.05,-000.04,0000.14,0000.36,0000.37,0000.34,18.4,24.5,07.1,04.9,0675.2,31.0
2021-06-06T10:17:00Z,00000200,00000000,0001.37,0000.66,0000.42,-000.31,0000.15,0000.04,0000.31,0000.59,0000.15,18.5,24.5,07.1,04.9,0675.2,31.0
2021-06-06T10:18:00Z,00000200,00000000,0000.50,0000.78,0000.80,-000.34,0000.07,0000.21,0000.66,0000.53,0000.41,18.5,24.5,07.1,04.9,0675.2,31.0
2021-06-06T10:19:00Z,00000200,00000000,0001.33,0000.80,0000.72,0000.08,0000.04,0000.34,0000.22,0000.54,0000.41,18.5,24.5,07.1,04.9,0675.2,31.0
2021-06-06T10:20:00Z,00000200,00000000,0001.12,0000.73,0000.32,0000.08,0000.21,0000.21,0000.61,-000.08,0000.41,18.5,24.5,07.1,04.9,0675.2,31.0
2021-06-06T10:21:00Z,00000200,00000000,0001.15,0000.52,0000.89,-000.18,0000.13,0000.52,0000.72,0000.80,0000.31,18.5,24.5,07.1,04.9,0675.2,31.0
2021-06-06T10:22:00Z,00000200,00000000,0001.26,0000.91,0000.59,0000.29,0000.18,0000.09,0000.51,0000.42,0000.44,18.5,24.5,07.1,04.9,0675.2,31.0
2021-06-06T10:23:00Z,00000200,00000000,0000.04,0000.62,0000.41,0000.16,0000.46,-000.03,0000.33,0000.49,0000.13,18.5,24.5,07.2,05.0,0675.2,31.0
2021-06-06T10:24:00Z,00000200,00000000,0000.85,0000.76,0000.51,0000.21,0000.18,0000.12,0000.53,0000.26,0000.23,18.5,24.5,07.1,04.9,0675.2,31.0
2021-06-06T10:25:00Z,00000200,00000000,0000.97,0000.64,0000.34,0000.37,0000.09,0000.13,0000.49,0001.05,0000.69,18.5,24.5,07.0,04.9,0675.2,31.0
2021-06-06T10:26:00Z,00000200,00000000,0000.83,0000.60,0000.49,0000.02,0000.16,0000.22,0000.52,-000.24,0000.09,18.5,24.5,07.1,04.9,0675.2,31.0
2021-06-06T10:27:00Z,00000200,00000000,0000.85,0000.69,0000.52,0000.35,0000.20,0000.19,0000.42,0000.78,0000.41,18.5,24.5,07.0,04.9,0675.2,31.0
2021-06-06T10:28:00Z,00000200,00000000,0000.60,0000.78,0000.49,-000.34,-000.00,0000.06,0000.67,0000.34,0000.44,18.6,24.5,07.0,04.9,0675.2,31.0
2021-06-06T10:29:00Z,00000200,00000000,0000.89,0000.42,0000.56,-000.39,0000.50,0000.22,0000.10,0000.16,0000.34,18.6,24.5,07.0,04.9,0675.2,31.0
2021-06-06T10:30:00Z,00000200,00000000,-000.02,0000.79,0000.25,-000.08,0000.19,0000.27,0000.42,0000.47,0000.21,18.6,24.5,07.1,04.9,0675.2,31.0
2021-06-06T10:31:00Z,00000200,00000000,0001.22,0000.62,0000.43,0000.10,0000.41,0000.42,0000.66,0000.41,0000.47,18.6,24.5,07.2,05.0,0675.2,31.0
2021-06-06T10:32:00Z,00000200,00000000,0000.88,0000.95,0000.42,0000.04,0000.16,0000.08,0000.45,0000.64,0000.37,18.6,24.5,07.1,04.9,0675.2,31.0
2021-06-06T10:33:00Z,00000200,00000000,0001.09,0001.05,0000.38,0000.13,0000.17,0000.08,0000.62,0000.45,0000.34,18.6,24.5,07.1,04.9,0675.2,31.0
2021-06-06T10:34:00Z,00000200,00000000,0000.93,0001.07,0000.42,0000.07,0000.41,0000.13,0000.20,0000.22,0000.09,18.6,24.5,07.1,05.0,0675.3,31.0
2021-06-06T10:35:00Z,00000200,00000000,0001.31,0000.58,0000.32,-000.14,0000.15,-000.03,0000.49,0000.51,0000.31,18.6,24.5,07.0,04.9,0675.3,31.0
2021-06-06T10:36:00Z,00000200,00000000,0000.35,0000.73,0000.52,0000.08,0000.14,0000.34,0000.47,0000.60,0000.58,18.7,24.6,07.1,05.0,0675.3,31.0
2021-06-06T10:37:00Z,00000200,00000000,0001.25,0000.75,0000.51,0000.14,-000.09,-000.05,0000.68,0000.25,0000.06,18.7,24.6,07.1,04.9,0675.3,31.0
2021-06-06T10:38:00Z,00000200,00000000,0001.64,0001.02,0000.71,0000.09,0000.52,0000.23,0000.29,0000.65,0000.59,18.7,24.6,07.1,05.0,0675.2,31.0
2021-06-06T10:39:00Z,00000200,00000000,0000.35,0000.44,0000.25,0000.19,0000.19,0000.17,0000.83,0000.09,0000.35,18.7,24.6,07.2,05.0,0675.2,31.0
2021-06-06T10:40:00Z,00000200,00000000,0001.00,0000.83,0000.75,0000.35,0000.07,0000.09,0000.51,0000.95,0000.30,18.7,24.6,07.2,05.0,0675.2,31.0
2021-06-06T10:41:00Z,00000200,00000000,0001.59,0001.07,0000.70,-000.15,0000.21,0000.54,0000.31,0000.44,0000.28,18.7,24.6,07.2,05.0,0675.2,31.0
2021-06-06T10:42:00Z,00000200,00000000,0000.92,0000.61,0000.25,-000.27,0000.12,0000.21,0000.63,0000.33,0000.48,18.7,24.6,07.4,05.2,0675.2,31.0
2021-06-06T10:43:00Z,00000200,00000000,0001.04,0000.83,0000.44,0000.57,0000.16,0000.20,0000.53,0000.54,0000.63,18.7,24.6,07.3,05.1,0675.2,31.0
2021-06-06T10:44:00Z,00000200,00000000,0000.96,0000.68,0000.21,0000.36,0000.05,-000.01,0000.61,0000.49,0000.07,18.7,24.6,07.3,05.1,0675.2,31.0
2021-06-06T10:45:00Z,00000200,00000000,0001.46,0000.90,0000.41,-000.20,0000.19,0000.21,0000.58,0000.09,0000.49,18.7,24.6,07.4,05.1,0675.2,31.0
2021-06-06T10:46:00Z,00000200,00000000,0000.54,0000.97,0000.50,0000.17,0000.20,0000.33,0000.11,0001.20,0000.24,18.7,24.6,07.3,05.1,0675.2,31.0
2021-06-06T10:47:00Z,00000200,00000000,0001.28,0000.80,0000.55,-000.51,0000.28,0000.33,0000.61,-000.26,0000.18,18.7,24.6,07.3,05.1,0675.2,31.0
2021-06-06T10:48:00Z,00000200,00000000,0001.33,0000.84,0000.44,-000.29,0000.14,0000.21,0000.07,0000.51,0000.46,18.8,24.6,07.2,05.0,0675.2,31.0
2021-06-06T10:49:00Z,00000200,00000000,0001.01,0001.10,0000.30,-000.20,0000.07,0000.15,0000.92,0000.57,0000.44,18.8,24.6,07.3,05.1,0675.2,31.0
2021-06-06T10:50:00Z,00000200,00000000,0001.03,0000.98,0000.67,0000.01,0000.22,0000.18,0000.54,0000.26,0000.37,18.8,24.7,07.3,05.1,0675.2,31.0
2021-06-06T10:51:00Z,00000200,00000000,0001.45,0000.83,0000.51,-000.28,-000.00,0000.20,0000.52,0000.50,0000.13,18.8,24.7,07.4,05.2,0675.2,31.0
2021-06-06T10:52:00Z,00000200,00000000,0001.19,0001.02,0000.47,0000.43,0000.39,0000.09,0000.56,0000.58,0000.40,18.8,24.7,07.4,05.2,0675.2,31.0
2021-06-06T10:53:00Z,00000200,00000000,0000.98,0000.80,0000.31,0000.33,0000.03,-000.11,0000.34,0000.38,0000.72,18.8,24.7,07.4,05.2,0675.2,31.0
2021-06-06T10:54:00Z,00000200,00000000,0001.37,0000.95,0000.62,-000.09,0000.00,0000.23,0001.17,0000.76,0000.17,18.8,24.7,07.5,05.3,0675.2,31.0
2021-06-06T10:55:00Z,00000200,00000000,0001.13,0000.81,0000.68,0000.10,0000.25,0000.25,0000.23,0000.54,0000.41,18.9,24.7,07.7,05.4,0675.2,31.0
2021-06-06T10:56:00Z,00000200,00000000,0001.29,0000.90,0000.13,0000.02,0000.06,-000.10,0000.31,0000.29,0000.34,18.9,24.7,07.6,05.3,0675.2,31.1
2021-06-06T10:57:00Z,00000200,40000000,,,,,,,0000.24,-000.07,-000.22,18.9,24.8,07.2,05.0,0675.2,31.0
2021-06-06T10:58:00Z,00000200,60000000,,,,,,,0000.14,-000.05,0000.33,18.8,24.8,07.5,05.2,0674.2,31.0
2021-06-06T10:59:00Z,00000200,20000000,,,,,,,-000.05,0000.18,0000.00,18.8,24.9,07.6,05.2,0674.2,31.0
